,,PA_Meas_PMT16A,,PR_Meas_QMR101_102,,RH_Meas_QMH101,,SR_Meas_QMS101,,TA_Meas_QMH101,,GenWind,,GenWind,
time,status,PA,status,PR,status,RH,status,SR,status,TA,status,DirAvg,status,SpdAvg,
2011-10-22, 00:00:05,VALID,916.812,VALID,0,VALID,94.8963,VALID,0,VALID,18.8658,VALID,174,VALID,0.912891,
2011-10-22, 00:01:05,VALID,916.815,VALID,0,VALID,94.881,VALID,0,VALID,18.8839,VALID,175,VALID,0.533984,
2011-10-22, 00:02:05,VALID,916.768,VALID,0,VALID,94.8734,VALID,0,VALID,18.8839,VALID,174,VALID,1.09336,
2011-10-22, 00:03:05,VALID,916.787,VALID,0,VALID,94.8277,VALID,0,VALID,18.8629,VALID,175,VALID,0.75,
2011-10-22, 00:04:05,VALID,916.771,VALID,0,VALID,94.7819,VALID,0,VALID,18.8839,VALID,174,VALID,0.823828,
2011-10-22, 00:05:05,VALID,916.811,VALID,0,VALID,94.7438,VALID,0.107441,VALID,18.8839,VALID,175,VALID,0.815625,
2011-10-22, 00:06:05,VALID,916.822,VALID,0,VALID,94.66,VALID,0.107441,VALID,18.8629,VALID,174,VALID,0.693359,
2011-10-22, 00:07:05,VALID,916.811,VALID,0,VALID,94.6295,VALID,0.107441,VALID,18.8824,VALID,174,VALID,0.527344,
2011-10-22, 00:08:05,VALID,916.827,VALID,0,VALID,94.5913,VALID,0.107441,VALID,18.8839,VALID,174,VALID,0.716797,
2011-10-22, 00:09:05,VALID,916.822,VALID,0,VALID,94.6447,VALID,0.107441,VALID,18.8629,VALID,174,VALID,0.507813,
2011-10-22, 00:10:05,VALID,916.839,VALID,0,VALID,94.7743,VALID,0.107441,VALID,18.8629,VALID,174,VALID,0.126172,
2011-10-22, 00:11:05,VALID,916.846,VALID,0,VALID,94.8277,VALID,0.107441,VALID,18.8629,VALID,174,VALID,0.432813,
2011-10-22, 00:12:05,VALID,916.842,VALID,0,VALID,94.7667,VALID,0.107441,VALID,18.824,VALID,174,VALID,0.471875,
2011-10-22, 00:13:05,VALID,916.858,VALID,0,VALID,94.7972,VALID,0.107441,VALID,18.824,VALID,174,VALID,0.463281,
2011-10-22, 00:14:05,VALID,916.865,VALID,0,VALID,94.881,VALID,0.107441,VALID,18.824,VALID,174,VALID,0.476172,
2011-10-22, 00:15:05,VALID,916.87,VALID,0,VALID,94.9115,VALID,0.107441,VALID,18.8045,VALID,174,VALID,0.778516,
2011-10-22, 00:16:05,VALID,916.848,VALID,0,VALID,95.0259,VALID,0,VALID,18.8059,VALID,113,VALID,0.983203,
2011-10-22, 00:17:05,VALID,916.865,VALID,0,VALID,95.0564,VALID,0,VALID,18.7669,VALID,75,VALID,0.952734,
2011-10-22, 00:18:05,VALID,916.866,VALID,0,VALID,95.0792,VALID,0,VALID,18.7474,VALID,75,VALID,0.782812,
2011-10-22, 00:19:05,VALID,916.857,VALID,0,VALID,95.1402,VALID,0,VALID,18.7293,VALID,75,VALID,0.678516,
2011-10-22, 00:20:05,VALID,916.835,VALID,0,VALID,95.2012,VALID,0,VALID,18.7293,VALID,75,VALID,0.915625,
2011-10-22, 00:21:05,VALID,916.837,VALID,0,VALID,95.2317,VALID,0,VALID,18.6889,VALID,75,VALID,0.589063,
2011-10-22, 00:22:05,VALID,916.802,VALID,0,VALID,95.2851,VALID,0,VALID,18.6694,VALID,75,VALID,0.569531,
2011-10-22, 00:23:05,VALID,916.781,VALID,0,VALID,95.3689,VALID,0,VALID,18.6499,VALID,75,VALID,0.575781,
2011-10-22, 00:24:05,VALID,916.754,VALID,0,VALID,95.468,VALID,0,VALID,18.6708,VALID,75,VALID,1.07578,
2011-10-22, 00:25:05,VALID,916.716,VALID,0,VALID,95.59,VALID,0,VALID,18.6708,VALID,76,VALID,0.755469,
2011-10-22, 00:26:05,VALID,916.681,VALID,0,VALID,95.6129,VALID,0,VALID,18.6499,VALID,75,VALID,0.667969,
2011-10-22, 00:27:05,VALID,916.663,VALID,0,VALID,95.6739,VALID,0,VALID,18.6499,VALID,75,VALID,0.475781,
2011-10-22, 00:28:05,VALID,916.619,VALID,0,VALID,95.712,VALID,0,VALID,18.6513,VALID,75,VALID,0.416797,
2011-10-22, 00:29:05,VALID,916.582,VALID,0,VALID,95.773,VALID,0,VALID,18.6499,VALID,75,VALID,0.269531,
2011-10-22, 00:30:05,VALID,916.576,VALID,0,VALID,95.8568,VALID,0,VALID,18.6499,VALID,75,VALID,0.579297,
2011-10-22, 00:31:05,VALID,916.58,VALID,0,VALID,95.9178,VALID,0,VALID,18.6694,VALID,75,VALID,0.608594,
2011-10-22, 00:32:05,VALID,916.58,VALID,0,VALID,95.9712,VALID,0,VALID,18.6694,VALID,75,VALID,0.694531,
2011-10-22, 00:33:05,VALID,916.539,VALID,0,VALID,95.9941,VALID,0,VALID,18.6694,VALID,113,VALID,0.8,
2011-10-22, 00:34:05,VALID,916.496,VALID,0,VALID,96.0245,VALID,0,VALID,18.6694,VALID,115,VALID,1.00625,
2011-10-22, 00:35:05,VALID,916.496,VALID,0,VALID,96.0855,VALID,0,VALID,18.6889,VALID,115,VALID,0.0121094,
2011-10-22, 00:36:05,VALID,916.509,VALID,0,VALID,96.1389,VALID,0,VALID,18.7084,VALID,115,VALID,0.508984,
2011-10-22, 00:37:05,VALID,916.465,VALID,0,VALID,96.1694,VALID,0,VALID,18.7488,VALID,115,VALID,0.525391,
2011-10-22, 00:38:05,VALID,916.421,VALID,0,VALID,96.1694,VALID,0,VALID,18.7683,VALID,115,VALID,0.216797,
2011-10-22, 00:39:05,VALID,916.4,VALID,0,VALID,96.1923,VALID,0,VALID,18.7669,VALID,115,VALID,0.176953,
2011-10-22, 00:40:05,VALID,916.39,VALID,0,VALID,96.177,VALID,0,VALID,18.7683,VALID,115,VALID,0.426172,
2011-10-22, 00:41:05,VALID,916.352,VALID,0,VALID,96.1618,VALID,0,VALID,18.7683,VALID,115,VALID,0.252344,
2011-10-22, 00:42:05,VALID,916.343,VALID,0,VALID,96.1313,VALID,0,VALID,18.7279,VALID,115,VALID,0.779297,
2011-10-22, 00:43:05,VALID,916.297,VALID,0,VALID,96.1313,VALID,0,VALID,18.7293,VALID,115,VALID,0.71875,
2011-10-22, 00:44:05,VALID,916.262,VALID,0,VALID,96.1618,VALID,0,VALID,18.7098,VALID,114,VALID,0.442969,
2011-10-22, 00:45:05,VALID,916.246,VALID,0,VALID,96.1846,VALID,0,VALID,18.6889,VALID,114,VALID,0.786719,
2011-10-22, 00:46:05,VALID,916.209,VALID,0,VALID,96.2075,VALID,0,VALID,18.6889,VALID,114,VALID,0.743359,
2011-10-22, 00:47:05,VALID,916.195,VALID,0,VALID,96.2456,VALID,0,VALID,18.6889,VALID,113,VALID,0.738672,
2011-10-22, 00:48:05,VALID,916.195,VALID,0,VALID,96.2609,VALID,0,VALID,18.6889,VALID,113,VALID,0.489453,
2011-10-22, 00:49:05,VALID,916.177,VALID,0,VALID,96.2609,VALID,0.107441,VALID,18.6889,VALID,113,VALID,0.668359,
2011-10-22, 00:50:05,VALID,916.128,VALID,0,VALID,96.2914,VALID,0,VALID,18.6694,VALID,113,VALID,0.691797,
2011-10-22, 00:51:05,VALID,916.12,VALID,0,VALID,96.2761,VALID,0,VALID,18.6694,VALID,113,VALID,0.675781,
2011-10-22, 00:52:05,VALID,916.11,VALID,0,VALID,96.2533,VALID,0.107441,VALID,18.6499,VALID,113,VALID,1.01836,
2011-10-22, 00:53:05,VALID,916.08,VALID,0,VALID,96.2914,VALID,0.107441,VALID,18.6485,VALID,113,VALID,0.921094,
2011-10-22, 00:54:05,VALID,916.063,VALID,0,VALID,96.2609,VALID,0,VALID,18.668,VALID,113,VALID,0.727344,
2011-10-22, 00:55:05,VALID,916.062,VALID,0,VALID,96.2761,VALID,0.107441,VALID,18.7084,VALID,113,VALID,0.728906,
2011-10-22, 00:56:05,VALID,916.049,VALID,0,VALID,96.2304,VALID,0,VALID,18.7084,VALID,163,VALID,0.940234,
2011-10-22, 00:57:04,VALID,916.034,VALID,0,VALID,96.1999,VALID,0,VALID,18.7084,VALID,154,VALID,0.592188,
2011-10-22, 00:58:04,VALID,916.012,VALID,0,VALID,96.1694,VALID,0,VALID,18.6889,VALID,149,VALID,1.06289,
2011-10-22, 00:59:04,VALID,915.987,VALID,0,VALID,96.1694,VALID,0.107441,VALID,18.6889,VALID,143,VALID,0.330078,
2011-10-22, 01:00:04,VALID,915.994,VALID,0,VALID,96.1389,VALID,0,VALID,18.6889,VALID,158,VALID,0.176563,
2011-10-22, 01:01:04,VALID,915.981,VALID,0,VALID,96.1465,VALID,0,VALID,18.6889,VALID,158,VALID,1.13047,
2011-10-22, 01:02:04,VALID,915.965,VALID,0,VALID,96.116,VALID,0.107441,VALID,18.6694,VALID,190,VALID,0.384766,
2011-10-22, 01:03:04,VALID,915.955,VALID,0,VALID,96.1313,VALID,0.107441,VALID,18.629,VALID,162,VALID,0.364453,
2011-10-22, 01:04:04,VALID,915.955,VALID,0,VALID,96.1313,VALID,0.107441,VALID,18.6694,VALID,158,VALID,0.517187,
2011-10-22, 01:05:04,VALID,915.936,VALID,0,VALID,96.0779,VALID,0,VALID,18.6499,VALID,150,VALID,0.979297,
2011-10-22, 01:06:04,VALID,915.927,VALID,0,VALID,96.0779,VALID,0,VALID,18.6304,VALID,162,VALID,1.00508,
2011-10-22, 01:07:04,VALID,915.906,VALID,0,VALID,96.0703,VALID,0,VALID,18.629,VALID,152,VALID,0.718359,
2011-10-22, 01:08:04,VALID,915.899,VALID,0.2,VALID,96.0245,VALID,0,VALID,18.6499,VALID,149,VALID,0.611719,
2011-10-22, 01:09:04,VALID,915.882,VALID,0,VALID,95.9788,VALID,0.107441,VALID,18.629,VALID,147,VALID,0.970312,
2011-10-22, 01:10:04,VALID,915.831,VALID,0,VALID,95.9254,VALID,0.107441,VALID,18.629,VALID,142,VALID,0.907812,
2011-10-22, 01:11:04,VALID,915.819,VALID,0,VALID,95.8645,VALID,0,VALID,18.6485,VALID,161,VALID,0.863281,
2011-10-22, 01:12:04,VALID,915.801,VALID,0,VALID,95.7958,VALID,0,VALID,18.6694,VALID,145,VALID,1.01172,
2011-10-22, 01:13:04,VALID,915.79,VALID,0,VALID,95.7044,VALID,0.107441,VALID,18.6485,VALID,122,VALID,1.15234,
2011-10-22, 01:14:04,VALID,915.793,VALID,0,VALID,95.6205,VALID,0,VALID,18.6889,VALID,156,VALID,1.39258,
2011-10-22, 01:15:04,VALID,915.736,VALID,0,VALID,95.5138,VALID,0.107441,VALID,18.7084,VALID,154,VALID,1.38828,
2011-10-22, 01:16:04,VALID,915.714,VALID,0,VALID,95.3689,VALID,0,VALID,18.7084,VALID,156,VALID,0.991406,
2011-10-22, 01:17:04,VALID,915.678,VALID,0,VALID,95.1783,VALID,0,VALID,18.7683,VALID,158,VALID,1.21797,
2011-10-22, 01:18:04,VALID,915.66,VALID,0,VALID,94.9649,VALID,0,VALID,18.7683,VALID,160,VALID,0.919531,
2011-10-22, 01:19:04,VALID,915.617,VALID,0,VALID,94.66,VALID,0,VALID,18.8059,VALID,136,VALID,0.738672,
2011-10-22, 01:20:04,VALID,915.571,VALID,0,VALID,94.3626,VALID,0,VALID,18.8658,VALID,146,VALID,0.838281,
2011-10-22, 01:21:04,VALID,915.576,VALID,0,VALID,94.0806,VALID,0,VALID,18.8658,VALID,165,VALID,0.912109,
2011-10-22, 01:22:04,VALID,915.571,VALID,0,VALID,93.829,VALID,0,VALID,18.9048,VALID,158,VALID,1.2168,
2011-10-22, 01:23:04,VALID,915.541,VALID,0,VALID,93.7299,VALID,0,VALID,18.8839,VALID,158,VALID,0.875,
2011-10-22, 01:24:04,VALID,915.525,VALID,0,VALID,93.7223,VALID,0,VALID,18.8839,VALID,169,VALID,1.23125,
2011-10-22, 01:25:04,VALID,915.497,VALID,0,VALID,93.7147,VALID,0,VALID,18.8853,VALID,121,VALID,0.804688,
2011-10-22, 01:26:04,VALID,915.508,VALID,0,VALID,93.7604,VALID,0,VALID,18.8853,VALID,155,VALID,1.31797,
2011-10-22, 01:27:04,VALID,915.492,VALID,0,VALID,93.8443,VALID,0,VALID,18.8644,VALID,130,VALID,0.787109,
2011-10-22, 01:28:04,VALID,915.459,VALID,0,VALID,93.89,VALID,0,VALID,18.8658,VALID,114,VALID,1.27852,
2011-10-22, 01:29:04,VALID,915.453,VALID,0,VALID,93.9434,VALID,0,VALID,18.8268,VALID,124,VALID,0.733984,
2011-10-22, 01:30:04,VALID,915.457,VALID,0,VALID,93.9662,VALID,0,VALID,18.8059,VALID,129,VALID,1.41992,
2011-10-22, 01:31:04,VALID,915.403,VALID,0,VALID,93.8214,VALID,0,VALID,18.8254,VALID,116,VALID,1.24375,
2011-10-22, 01:32:04,VALID,915.398,VALID,0,VALID,93.7451,VALID,0,VALID,18.8658,VALID,137,VALID,1.1457,
2011-10-22, 01:33:04,VALID,915.407,VALID,0,VALID,93.7147,VALID,0,VALID,18.8254,VALID,146,VALID,0.846875,
2011-10-22, 01:34:04,VALID,915.384,VALID,0,VALID,93.7604,VALID,0,VALID,18.8463,VALID,109,VALID,1.06836,
2011-10-22, 01:35:04,VALID,915.365,VALID,0,VALID,93.7604,VALID,0,VALID,18.8463,VALID,120,VALID,0.849609,
2011-10-22, 01:36:04,VALID,915.372,VALID,0,VALID,93.7375,VALID,0,VALID,18.8463,VALID,140,VALID,0.640625,
2011-10-22, 01:37:04,VALID,915.374,VALID,0,VALID,93.5851,VALID,0,VALID,18.8658,VALID,107,VALID,1.37344,
2011-10-22, 01:38:04,VALID,915.343,VALID,0,VALID,93.3945,VALID,0,VALID,18.8853,VALID,126,VALID,1.81797,
2011-10-22, 01:39:04,VALID,915.29,VALID,0,VALID,93.2496,VALID,0,VALID,18.9048,VALID,136,VALID,1.35195,
2011-10-22, 01:40:04,VALID,915.296,VALID,0,VALID,93.2039,VALID,0,VALID,18.8839,VALID,132,VALID,1.04531,
2011-10-22, 01:41:04,VALID,915.273,VALID,0,VALID,93.1505,VALID,0,VALID,18.9243,VALID,147,VALID,0.769141,
2011-10-22, 01:42:04,VALID,915.279,VALID,0,VALID,93.1048,VALID,0,VALID,18.9243,VALID,141,VALID,1.28867,
2011-10-22, 01:43:04,VALID,915.237,VALID,0,VALID,93.12,VALID,0,VALID,18.8839,VALID,141,VALID,1.08867,
2011-10-22, 01:44:04,VALID,915.249,VALID,0,VALID,93.1353,VALID,0,VALID,18.9243,VALID,141,VALID,1.27109,
2011-10-22, 01:45:04,VALID,915.2,VALID,0,VALID,93.242,VALID,0,VALID,18.8839,VALID,127,VALID,0.597266,
2011-10-22, 01:46:04,VALID,915.199,VALID,0,VALID,93.3335,VALID,0,VALID,18.8853,VALID,133,VALID,0.846094,
2011-10-22, 01:47:04,VALID,915.194,VALID,0,VALID,93.5164,VALID,0,VALID,18.8463,VALID,152,VALID,0.952734,
2011-10-22, 01:48:04,VALID,915.219,VALID,0,VALID,93.6765,VALID,0,VALID,18.8268,VALID,182,VALID,0.784375,
2011-10-22, 01:49:04,VALID,915.216,VALID,0,VALID,93.8443,VALID,0,VALID,18.8268,VALID,131,VALID,1.28633,
2011-10-22, 01:50:04,VALID,915.221,VALID,0,VALID,94.0272,VALID,0,VALID,18.8059,VALID,148,VALID,0.720703,
2011-10-22, 01:51:04,VALID,915.216,VALID,0,VALID,94.1034,VALID,0,VALID,18.7864,VALID,166,VALID,0.980859,
2011-10-22, 01:52:04,VALID,915.183,VALID,0,VALID,94.1568,VALID,0,VALID,18.8073,VALID,143,VALID,1.48906,
2011-10-22, 01:53:04,VALID,915.181,VALID,0,VALID,94.3017,VALID,0,VALID,18.8268,VALID,155,VALID,0.452734,
2011-10-22, 01:54:04,VALID,915.225,VALID,0,VALID,94.3245,VALID,0,VALID,18.7878,VALID,131,VALID,0.426953,
2011-10-22, 01:55:04,VALID,915.204,VALID,0,VALID,94.3855,VALID,0,VALID,18.8073,VALID,147,VALID,1.24609,
2011-10-22, 01:56:04,VALID,915.214,VALID,0,VALID,94.4236,VALID,0,VALID,18.8059,VALID,131,VALID,1.26836,
2011-10-22, 01:57:04,VALID,915.22,VALID,0,VALID,94.3321,VALID,0,VALID,18.8073,VALID,119,VALID,1.30898,
2011-10-22, 01:58:04,VALID,915.208,VALID,0,VALID,94.2483,VALID,0,VALID,18.8268,VALID,143,VALID,0.889453,
2011-10-22, 01:59:04,VALID,915.183,VALID,0,VALID,94.2483,VALID,0,VALID,18.8254,VALID,147,VALID,1.40156,
2011-10-22, 02:00:04,VALID,915.201,VALID,0,VALID,94.1721,VALID,0,VALID,18.8658,VALID,153,VALID,0.901172,
2011-10-22, 02:01:04,VALID,915.176,VALID,0,VALID,94.0653,VALID,0,VALID,18.8449,VALID,152,VALID,1.15586,
2011-10-22, 02:02:04,VALID,915.197,VALID,0,VALID,94.012,VALID,0,VALID,18.8853,VALID,144,VALID,0.605078,
2011-10-22, 02:03:04,VALID,915.18,VALID,0,VALID,93.9967,VALID,0,VALID,18.8853,VALID,139,VALID,0.987109,
2011-10-22, 02:04:04,VALID,915.15,VALID,0,VALID,94.0501,VALID,0,VALID,18.8463,VALID,153,VALID,1.36758,
2011-10-22, 02:05:04,VALID,915.134,VALID,0,VALID,94.1034,VALID,0,VALID,18.8463,VALID,123,VALID,0.853906,
2011-10-22, 02:06:04,VALID,915.135,VALID,0,VALID,94.1187,VALID,0,VALID,18.8449,VALID,138,VALID,0.584766,
2011-10-22, 02:07:04,VALID,915.139,VALID,0,VALID,94.0882,VALID,0,VALID,18.8463,VALID,141,VALID,0.619922,
2011-10-22, 02:08:04,VALID,915.139,VALID,0,VALID,94.0882,VALID,0,VALID,18.8268,VALID,157,VALID,0.535547,
2011-10-22, 02:09:04,VALID,915.145,VALID,0,VALID,94.1111,VALID,0,VALID,18.8268,VALID,138,VALID,0.408594,
2011-10-22, 02:10:04,VALID,915.152,VALID,0,VALID,94.1111,VALID,0,VALID,18.8073,VALID,121,VALID,1.03086,
2011-10-22, 02:11:04,VALID,915.126,VALID,0,VALID,94.1416,VALID,0,VALID,18.7878,VALID,120,VALID,1.19141,
2011-10-22, 02:12:04,VALID,915.114,VALID,0,VALID,94.1568,VALID,0,VALID,18.7878,VALID,122,VALID,0.969531,
2011-10-22, 02:13:04,VALID,915.112,VALID,0,VALID,94.1187,VALID,0,VALID,18.7878,VALID,125,VALID,0.723828,
2011-10-22, 02:14:04,VALID,915.105,VALID,0,VALID,94.1034,VALID,0,VALID,18.7878,VALID,125,VALID,0.316406,
2011-10-22, 02:15:04,VALID,915.087,VALID,0,VALID,94.0348,VALID,0,VALID,18.7683,VALID,147,VALID,0.825781,
2011-10-22, 02:16:04,VALID,915.089,VALID,0,VALID,93.9205,VALID,0,VALID,18.7864,VALID,137,VALID,1.13633,
2011-10-22, 02:17:04,VALID,915.099,VALID,0,VALID,93.7985,VALID,0,VALID,18.7864,VALID,132,VALID,0.627344,
2011-10-22, 02:18:04,VALID,915.104,VALID,0,VALID,93.7451,VALID,0,VALID,18.7864,VALID,151,VALID,0.21875,
2011-10-22, 02:19:04,VALID,915.114,VALID,0,VALID,93.7528,VALID,0,VALID,18.7864,VALID,149,VALID,0.6,
2011-10-22, 02:20:04,VALID,915.126,VALID,0,VALID,93.7223,VALID,0.107441,VALID,18.7864,VALID,127,VALID,0.608594,
2011-10-22, 02:21:04,VALID,915.085,VALID,0,VALID,93.6232,VALID,0,VALID,18.7864,VALID,129,VALID,0.660937,
2011-10-22, 02:22:04,VALID,915.091,VALID,0,VALID,93.5012,VALID,0,VALID,18.8254,VALID,150,VALID,1.01445,
2011-10-22, 02:23:04,VALID,915.086,VALID,0,VALID,93.4326,VALID,0,VALID,18.8254,VALID,149,VALID,0.84375,
2011-10-22, 02:24:04,VALID,915.07,VALID,0,VALID,93.3335,VALID,0,VALID,18.8254,VALID,141,VALID,1.2543,
2011-10-22, 02:25:04,VALID,915.073,VALID,0,VALID,93.2115,VALID,0,VALID,18.8449,VALID,136,VALID,1.24805,
2011-10-22, 02:26:04,VALID,915.059,VALID,0,VALID,92.9523,VALID,0,VALID,18.9034,VALID,126,VALID,1.63242,
2011-10-22, 02:27:04,VALID,915.06,VALID,0,VALID,92.6931,VALID,0,VALID,18.9424,VALID,132,VALID,0.785937,
2011-10-22, 02:28:04,VALID,915.055,VALID,0,VALID,92.5559,VALID,0,VALID,18.9619,VALID,116,VALID,0.726172,
2011-10-22, 02:29:04,VALID,915.059,VALID,0,VALID,92.533,VALID,0,VALID,18.9409,VALID,129,VALID,0.402344,
2011-10-22, 02:30:04,VALID,915.056,VALID,0,VALID,92.5254,VALID,0,VALID,18.9424,VALID,129,VALID,0.662891,
2011-10-22, 02:31:04,VALID,915.05,VALID,0,VALID,92.5559,VALID,0,VALID,18.9633,VALID,83,VALID,1.12656,
2011-10-22, 02:32:04,VALID,915.064,VALID,0,VALID,92.6093,VALID,0,VALID,18.9633,VALID,113,VALID,1.1543,
2011-10-22, 02:33:04,VALID,915.067,VALID,0,VALID,92.655,VALID,0,VALID,18.9633,VALID,124,VALID,1.26133,
2011-10-22, 02:34:04,VALID,915.08,VALID,0,VALID,92.7617,VALID,0,VALID,18.9438,VALID,128,VALID,1.16562,
2011-10-22, 02:35:04,VALID,915.12,VALID,0,VALID,92.8227,VALID,0,VALID,18.9438,VALID,129,VALID,1.35898,
2011-10-22, 02:36:04,VALID,915.071,VALID,0,VALID,92.8989,VALID,0,VALID,18.9438,VALID,128,VALID,0.890625,
2011-10-22, 02:37:04,VALID,915.052,VALID,0,VALID,92.9447,VALID,0,VALID,18.9438,VALID,138,VALID,0.933984,
2011-10-22, 02:38:04,VALID,915.064,VALID,0,VALID,93.0743,VALID,0,VALID,18.9243,VALID,130,VALID,0.569922,
2011-10-22, 02:39:04,VALID,915.057,VALID,0,VALID,93.1581,VALID,0,VALID,18.9243,VALID,124,VALID,1.67734,
2011-10-22, 02:40:04,VALID,915.07,VALID,0,VALID,93.2191,VALID,0,VALID,18.9034,VALID,121,VALID,0.822656,
2011-10-22, 02:41:04,VALID,915.059,VALID,0,VALID,93.181,VALID,0,VALID,18.9438,VALID,101,VALID,1.41914,
2011-10-22, 02:42:04,VALID,915.056,VALID,0,VALID,93.1886,VALID,0,VALID,18.9633,VALID,144,VALID,0.824609,
2011-10-22, 02:43:04,VALID,915.05,VALID,0,VALID,93.1963,VALID,0,VALID,18.9633,VALID,122,VALID,0.783984,
2011-10-22, 02:44:04,VALID,915.062,VALID,0,VALID,93.2268,VALID,0,VALID,18.9619,VALID,114,VALID,1.0043,
2011-10-22, 02:45:04,VALID,915.087,VALID,0,VALID,93.1886,VALID,0,VALID,19.0023,VALID,113,VALID,1.77969,
2011-10-22, 02:46:04,VALID,915.094,VALID,0,VALID,93.1886,VALID,0,VALID,19.0218,VALID,92,VALID,0.807813,
2011-10-22, 02:47:04,VALID,915.104,VALID,0,VALID,93.1353,VALID,0,VALID,19.0008,VALID,125,VALID,0.638672,
2011-10-22, 02:48:04,VALID,915.099,VALID,0,VALID,93.0362,VALID,0,VALID,19.0413,VALID,104,VALID,2.13281,
2011-10-22, 02:49:04,VALID,915.134,VALID,0,VALID,92.8303,VALID,0,VALID,19.0803,VALID,114,VALID,1.77891,
2011-10-22, 02:50:04,VALID,915.121,VALID,0,VALID,92.6397,VALID,0,VALID,19.1388,VALID,114,VALID,1.5207,
2011-10-22, 02:51:04,VALID,915.168,VALID,0,VALID,92.5102,VALID,0,VALID,19.1388,VALID,128,VALID,1.80586,
2011-10-22, 02:52:04,VALID,915.132,VALID,0,VALID,92.5102,VALID,0,VALID,19.1193,VALID,133,VALID,1.82656,
2011-10-22, 02:53:04,VALID,915.161,VALID,0,VALID,92.4415,VALID,0,VALID,19.1373,VALID,126,VALID,2.20508,
2011-10-22, 02:54:04,VALID,915.179,VALID,0,VALID,92.3577,VALID,0,VALID,19.1778,VALID,88,VALID,1.39453,
2011-10-22, 02:55:04,VALID,915.172,VALID,0,VALID,92.1823,VALID,0,VALID,19.1763,VALID,87,VALID,2.26211,
2011-10-22, 02:56:04,VALID,915.148,VALID,0,VALID,91.9003,VALID,0,VALID,19.2363,VALID,96,VALID,2.27695,
2011-10-22, 02:57:04,VALID,915.182,VALID,0,VALID,91.7326,VALID,0,VALID,19.2348,VALID,113,VALID,1.63633,
2011-10-22, 02:58:04,VALID,915.139,VALID,0,VALID,91.7859,VALID,0,VALID,19.2753,VALID,60,VALID,1.13828,
2011-10-22, 02:59:04,VALID,915.135,VALID,0,VALID,91.8088,VALID,0,VALID,19.2543,VALID,94,VALID,1.84609,
2011-10-22, 03:00:04,VALID,915.128,VALID,0,VALID,91.8545,VALID,0,VALID,19.2753,VALID,80,VALID,1.81562,
2011-10-22, 03:01:04,VALID,915.126,VALID,0,VALID,91.8545,VALID,0.107441,VALID,19.2738,VALID,78,VALID,1.56875,
2011-10-22, 03:02:04,VALID,915.133,VALID,0,VALID,91.8927,VALID,0,VALID,19.2528,VALID,89,VALID,1.35703,
2011-10-22, 03:03:04,VALID,915.125,VALID,0,VALID,91.8164,VALID,0,VALID,19.2738,VALID,94,VALID,1.96289,
2011-10-22, 03:04:04,VALID,915.114,VALID,0,VALID,91.7554,VALID,0.107441,VALID,19.2723,VALID,85,VALID,1.9293,
2011-10-22, 03:05:04,VALID,915.12,VALID,0,VALID,91.6411,VALID,0.107441,VALID,19.2918,VALID,106,VALID,1.71094,
2011-10-22, 03:06:04,VALID,915.089,VALID,0,VALID,91.6182,VALID,0.107441,VALID,19.3113,VALID,86,VALID,1.57852,
2011-10-22, 03:07:04,VALID,915.096,VALID,0,VALID,91.5496,VALID,0,VALID,19.3113,VALID,126,VALID,1.76602,
2011-10-22, 03:08:04,VALID,915.068,VALID,0,VALID,91.6411,VALID,0.107441,VALID,19.3113,VALID,95,VALID,1.11328,
2011-10-22, 03:09:04,VALID,915.084,VALID,0,VALID,91.5648,VALID,0.107441,VALID,19.3113,VALID,123,VALID,1.38398,
2011-10-22, 03:10:04,VALID,915.094,VALID,0,VALID,91.6868,VALID,0,VALID,19.3323,VALID,104,VALID,1.05391,
2011-10-22, 03:11:04,VALID,915.111,VALID,0,VALID,91.824,VALID,0.107441,VALID,19.3113,VALID,113,VALID,1.16914,
2011-10-22, 03:12:04,VALID,915.094,VALID,0,VALID,91.8774,VALID,0.107441,VALID,19.2918,VALID,113,VALID,1.14297,
2011-10-22, 03:13:04,VALID,915.096,VALID,0,VALID,91.9765,VALID,0.107441,VALID,19.2933,VALID,113,VALID,1.08789,
2011-10-22, 03:14:04,VALID,915.058,VALID,0,VALID,92.1366,VALID,0,VALID,19.2528,VALID,109,VALID,0.514063,
2011-10-22, 03:15:04,VALID,915.046,VALID,0,VALID,92.2814,VALID,0,VALID,19.2334,VALID,104,VALID,0.699219,
2011-10-22, 03:16:04,VALID,915.013,VALID,0,VALID,92.2814,VALID,0,VALID,19.2543,VALID,98,VALID,1.05703,
2011-10-22, 03:17:04,VALID,915.014,VALID,0,VALID,92.0756,VALID,0,VALID,19.2738,VALID,123,VALID,1.21484,
2011-10-22, 03:18:04,VALID,914.984,VALID,0,VALID,92.0756,VALID,0,VALID,19.2948,VALID,114,VALID,1.55469,
2011-10-22, 03:19:04,VALID,914.963,VALID,0,VALID,92.068,VALID,0,VALID,19.2738,VALID,117,VALID,1.49961,
2011-10-22, 03:20:04,VALID,914.95,VALID,0,VALID,92.1671,VALID,0,VALID,19.2933,VALID,86,VALID,0.882422,
2011-10-22, 03:21:04,VALID,914.942,VALID,0,VALID,92.2128,VALID,0,VALID,19.2948,VALID,102,VALID,1.13203,
2011-10-22, 03:22:04,VALID,914.918,VALID,0,VALID,92.2586,VALID,0,VALID,19.2753,VALID,103,VALID,0.8875,
2011-10-22, 03:23:04,VALID,914.896,VALID,0,VALID,92.2586,VALID,0,VALID,19.2543,VALID,107,VALID,1.14023,
2011-10-22, 03:24:04,VALID,914.916,VALID,0,VALID,92.2814,VALID,0,VALID,19.2753,VALID,116,VALID,0.840234,
2011-10-22, 03:25:04,VALID,914.899,VALID,0,VALID,92.3653,VALID,0,VALID,19.2753,VALID,90,VALID,0.985156,
2011-10-22, 03:26:04,VALID,914.892,VALID,0,VALID,92.2738,VALID,0,VALID,19.2543,VALID,87,VALID,2.08789,
2011-10-22, 03:27:04,VALID,914.89,VALID,0,VALID,92.2738,VALID,0,VALID,19.2933,VALID,89,VALID,0.778125,
2011-10-22, 03:28:04,VALID,914.866,VALID,0,VALID,92.2586,VALID,0,VALID,19.3143,VALID,83,VALID,0.928125,
2011-10-22, 03:29:04,VALID,914.869,VALID,0,VALID,92.3043,VALID,0,VALID,19.2933,VALID,83,VALID,0.717188,
2011-10-22, 03:30:04,VALID,914.857,VALID,0,VALID,92.2128,VALID,0,VALID,19.3128,VALID,83,VALID,1.05391,
2011-10-22, 03:31:04,VALID,914.87,VALID,0,VALID,92.129,VALID,0,VALID,19.3533,VALID,83,VALID,0.744141,
2011-10-22, 03:32:04,VALID,914.892,VALID,0,VALID,91.9689,VALID,0,VALID,19.3518,VALID,115,VALID,0.911719,
2011-10-22, 03:33:04,VALID,914.88,VALID,0,VALID,91.8545,VALID,0,VALID,19.3713,VALID,114,VALID,1.36992,
2011-10-22, 03:34:04,VALID,914.864,VALID,0,VALID,91.8698,VALID,0,VALID,19.3908,VALID,111,VALID,0.979688,
2011-10-22, 03:35:04,VALID,914.852,VALID,0,VALID,91.9231,VALID,0,VALID,19.4118,VALID,113,VALID,0.979688,
2011-10-22, 03:36:04,VALID,914.847,VALID,0,VALID,91.7478,VALID,0,VALID,19.4313,VALID,97,VALID,1.70781,
2011-10-22, 03:37:04,VALID,914.864,VALID,0,VALID,91.7097,VALID,0,VALID,19.4298,VALID,103,VALID,0.860547,
2011-10-22, 03:38:04,VALID,914.856,VALID,0,VALID,91.5496,VALID,0,VALID,19.4493,VALID,93,VALID,1.07734,
2011-10-22, 03:39:04,VALID,914.888,VALID,0,VALID,91.4886,VALID,0,VALID,19.4688,VALID,101,VALID,0.679297,
2011-10-22, 03:40:04,VALID,914.902,VALID,0,VALID,91.4124,VALID,0,VALID,19.4688,VALID,92,VALID,1.42383,
2011-10-22, 03:41:04,VALID,914.848,VALID,0,VALID,91.4124,VALID,0,VALID,19.4493,VALID,106,VALID,0.830469,
2011-10-22, 03:42:04,VALID,914.879,VALID,0,VALID,91.3514,VALID,0,VALID,19.4298,VALID,117,VALID,1.05469,
2011-10-22, 03:43:04,VALID,914.876,VALID,0,VALID,91.2599,VALID,0,VALID,19.4688,VALID,125,VALID,1.17148,